VR2R-13 Weather Reports


time (UTC)temp
F
wind
direction
speed
knots
gust
knots
rain 1hr
in
rain 24hr
in
rain mn
in
humidity
%
barometer
mb
20260508050812 69 360 0.0 2.6 0.00 0.00 0.00 95 914.8
20260508050614 70 70 0.0 2.6 0.00 0.00 0.00 96 914.8
20260508050014 70 251 0.9 2.6 0.00 0.00 0.00 95 914.9
20260508045812 69 199 0.9 2.6 0.00 0.00 0.00 95 914.9
20260508045414 69 95 0.9 2.6 0.00 0.00 0.00 95 914.9
20260508045314 69 4 0.0 2.6 0.00 0.00 0.00 95 914.9
20260508044814 69 264 1.7 4.3 0.00 0.00 0.00 95 915.0
20260508044812 69 263 1.7 4.3 0.00 0.00 0.00 95 915.0
20260508044312 70 224 0.9 2.6 0.00 0.00 0.00 94 915.0
20260508044213 70 188 0.0 1.7 0.00 0.00 0.00 94 915.0
20260508043812 70 186 0.9 4.3 0.00 0.00 0.00 94 915.1
20260508043614 70 176 0.9 5.2 0.00 0.00 0.00 94 915.1
20260508043312 70 108 1.7 5.2 0.00 0.00 0.00 93 915.2
20260508043013 70 181 2.6 5.2 0.00 0.00 0.00 94 915.2
20260508042812 70 97 0.0 5.2 0.00 0.00 0.00 94 915.2
20260508042313 70 213 0.0 0.9 0.00 0.00 0.00 94 915.2
20260508041814 70 16 0.9 2.6 0.00 0.00 0.00 93 915.3
20260508041213 70 12 1.7 2.6 0.00 0.00 0.00 93 915.3
20260508040613 70 39 0.9 4.3 0.00 0.00 0.00 93 915.3
20260508040312 71 21 2.6 4.3 0.00 0.00 0.00 92 915.3
20260508040013 71 82 2.6 4.3 0.00 0.00 0.00 92 915.3
20260508035812 71 158 0.9 3.5 0.00 0.00 0.00 92 915.3
20260508035413 71 65 0.9 3.5 0.00 0.00 0.00 92 915.3
20260508035312 71 105 0.0 3.5 0.00 0.00 0.00 92 915.3
20260508033812 71 169 1.7 3.5 0.00 0.00 0.00 92 915.4
20260508033613 71 87 0.0 3.5 0.00 0.00 0.00 91 915.4
20260508033013 71 87 3.5 7.8 0.00 0.00 0.00 92 915.4
20260508032812 71 83 5.2 7.8 0.00 0.00 0.00 92 915.4
20260508032413 71 126 3.5 6.1 0.00 0.00 0.00 92 915.4
20260508032311 71 122 2.6 5.2 0.00 0.00 0.00 93 915.4
20260508030811 69 66 0.0 3.5 0.00 0.00 0.00 95 915.7
20260508030613 69 143 0.0 0.0 0.00 0.00 0.00 95 915.8
20260508023311 71 83 0.9 4.3 0.00 0.00 0.00 91 915.9
20260508023012 71 126 0.0 2.6 0.00 0.00 0.00 91 916.0
20260508022811 70 155 0.0 1.7 0.00 0.00 0.00 92 916.1
20260508021813 70 58 0.0 0.9 0.00 0.00 0.00 93 916.1
20260508021311 70 114 0.9 3.5 0.00 0.00 0.00 93 916.1
20260508021212 70 84 0.0 2.6 0.00 0.00 0.00 93 916.1
20260508020811 70 109 0.0 0.0 0.00 0.00 0.00 93 916.1
20260508020612 70 99 0.0 2.6 0.00 0.00 0.00 92 916.1
20260508015412 71 58 0.9 3.5 0.00 0.00 0.00 90 916.2
20260508014813 72 70 2.6 5.2 0.00 0.00 0.00 89 916.1
20260508013012 72 182 0.9 3.5 0.00 0.00 0.00 88 916.2
20260508012412 72 102 0.9 1.7 0.00 0.00 0.00 88 916.2
20260508012311 72 225 0.9 1.7 0.00 0.00 0.00 88 916.2
20260508011811 73 281 2.6 4.3 0.00 0.00 0.00 88 916.1
20260508011311 74 306 2.6 4.3 0.00 0.00 0.00 86 915.9
20260508011212 74 253 2.6 4.3 0.00 0.00 0.00 87 915.9
20260508010612 71 217 1.7 2.6 0.00 0.00 0.00 90 915.9
20260508010311 71 230 1.7 4.3 0.00 0.00 0.00 89 915.8
20260508010012 71 263 2.6 4.3 0.00 0.00 0.00 89 915.7
20260508005810 72 270 1.7 3.5 0.00 0.00 0.00 88 915.8
20260508005412 72 217 1.7 2.6 0.00 0.00 0.00 88 915.7
20260508005310 72 236 0.9 2.6 0.00 0.00 0.00 88 915.7
20260508004812 72 219 0.9 1.7 0.00 0.00 0.00 88 915.7
20260508004810 72 225 0.9 1.7 0.00 0.00 0.00 88 915.7
20260508004310 72 148 1.7 3.5 0.00 0.00 0.00 90 915.7
20260508004212 72 145 1.7 3.5 0.00 0.00 0.00 90 915.7
20260508003810 71 156 0.0 1.7 0.00 0.00 0.00 89 915.7
20260508003611 71 91 0.9 4.3 0.00 0.00 0.00 88 915.7
20260508003310 71 353 0.0 4.3 0.00 0.00 0.00 88 915.7
20260508003012 71 288 2.6 4.3 0.00 0.00 0.00 88 915.7
20260508002811 71 227 1.7 2.6 0.00 0.00 0.00 87 915.6
20260508002412 71 148 0.0 1.7 0.00 0.00 0.00 89 915.6
20260508002310 72 195 1.7 2.6 0.00 0.00 0.00 91 915.6
20260508001812 71 155 0.0 1.7 0.00 0.00 0.00 90 915.6
20260508001810 71 153 0.0 1.7 0.00 0.00 0.00 90 915.5
20260508001310 72 131 0.9 1.7 0.00 0.00 0.00 89 915.6
20260508001211 72 60 0.9 1.7 0.00 0.00 0.00 89 915.6
20260508000810 72 120 0.0 2.6 0.00 0.00 0.00 88 915.6
20260508000611 73 88 0.9 2.6 0.00 0.00 0.00 87 915.6
20260508000312 73 146 0.9 5.2 0.00 0.00 0.00 88 915.5
20260508000011 73 60 0.9 1.7 0.00 0.00 0.00 87 915.5
20260507235811 73 299 1.7 4.3 0.00 0.00 0.00 87 915.5
20260507235411 72 313 0.9 2.6 0.00 0.00 0.00 87 915.5
20260507235310 72 22 0.9 1.7 0.00 0.00 0.00 87 915.4
20260507234811 72 67 2.6 4.3 0.00 0.00 0.00 89 915.3
20260507234311 72 183 0.0 0.0 0.00 0.00 0.00 89 915.3
20260507233810 71 33 1.7 4.3 0.00 0.00 0.00 88 915.2
20260507233611 71 66 1.7 4.3 0.00 0.00 0.00 88 915.1
20260507233310 71 324 1.7 3.5 0.00 0.00 0.00 89 915.1
20260507233011 71 18 0.9 3.5 0.00 0.00 0.00 89 915.1
20260507232810 71 232 0.9 3.5 0.00 0.00 0.00 89 915.1
20260507232411 71 276 0.0 2.6 0.00 0.00 0.00 88 915.1
20260507232310 71 256 0.9 2.6 0.00 0.00 0.00 89 915.0
20260507231812 70 42 0.9 2.6 0.00 0.00 0.00 89 915.0
20260507231810 70 43 0.9 2.6 0.00 0.00 0.00 89 915.0
20260507231310 70 119 0.9 1.7 0.00 0.00 0.00 88 914.9
20260507231211 70 117 0.9 1.7 0.00 0.00 0.00 88 915.0
20260507230810 70 70 0.0 1.7 0.00 0.00 0.00 88 914.9
20260507230611 70 204 0.0 1.7 0.00 0.00 0.00 88 914.9
20260507230309 70 158 0.0 1.7 0.00 0.00 0.00 88 914.9
20260507230011 70 103 0.0 1.7 0.00 0.00 0.00 88 914.8
20260507225809 70 95 0.0 2.6 0.00 0.00 0.00 87 914.8
20260507225411 70 120 0.9 1.7 0.00 0.00 0.00 88 914.8
20260507225309 70 148 0.9 1.7 0.00 0.00 0.00 88 914.8
20260507224809 69 83 0.9 1.7 0.00 0.00 0.00 88 914.7
20260507224309 69 81 0.9 1.7 0.00 0.00 0.00 88 914.7
20260507224211 69 80 0.9 1.7 0.00 0.00 0.00 88 914.7
20260507223611 69 98 0.9 2.6 0.00 0.00 0.00 89 914.6
20260507223309 68 220 0.9 3.5 0.00 0.00 0.00 89 914.5
20260507223011 68 284 1.7 3.5 0.00 0.00 0.00 89 914.5
20260507222809 68 323 1.7 3.5 0.00 0.00 0.00 89 914.4
20260507222309 68 303 2.6 4.3 0.00 0.00 0.00 89 914.4
20260507221809 67 303 2.6 4.3 0.00 0.00 0.00 90 914.4
20260507221309 67 293 3.5 4.3 0.00 0.00 0.00 90 914.4
20260507220809 67 297 2.6 4.3 0.00 0.00 0.00 90 914.3
20260507220309 67 289 3.5 4.3 0.00 0.00 0.00 90 914.3
20260507215809 67 278 3.5 4.3 0.00 0.00 0.00 90 914.2
20260507215309 67 307 3.5 4.3 0.00 0.00 0.00 90 914.2
20260507214809 67 275 3.5 4.3 0.00 0.00 0.00 90 914.1
20260507214309 67 276 3.5 4.3 0.00 0.00 0.00 90 914.1
20260507213809 67 283 3.5 3.5 0.00 0.00 0.00 90 914.1
20260507213309 67 280 1.7 3.5 0.00 0.00 0.00 90 914.1
20260507212809 67 307 2.6 3.5 0.00 0.00 0.00 90 914.0
20260507212309 68 300 2.6 3.5 0.00 0.00 0.00 89 914.0
20260507211809 68 295 2.6 3.5 0.00 0.00 0.00 89 913.9
20260507211309 68 284 1.7 3.5 0.00 0.00 0.00 89 913.8
20260507210809 68 305 2.6 3.5 0.00 0.00 0.00 89 913.9
20260507210308 68 303 2.6 3.5 0.00 0.00 0.00 89 913.8
20260507205808 68 285 2.6 4.3 0.00 0.00 0.00 89 913.8
20260507205309 68 283 2.6 4.3 0.00 0.00 0.00 88 913.7
20260507204808 68 296 2.6 3.5 0.00 0.00 0.00 88 913.7
20260507204308 68 273 2.6 3.5 0.00 0.00 0.00 88 913.5
20260507203809 68 285 2.6 3.5 0.00 0.00 0.00 88 913.5
20260507203308 69 296 2.6 3.5 0.00 0.00 0.00 87 913.5
20260507202808 69 288 1.7 1.7 0.00 0.00 0.00 85 913.4
20260507202308 69 302 0.9 1.7 0.00 0.00 0.00 85 913.5
20260507201808 69 299 1.7 2.6 0.00 0.00 0.00 85 913.4
20260507201308 69 295 1.7 2.6 0.00 0.00 0.00 85 913.4
20260507200808 69 294 1.7 2.6 0.00 0.00 0.00 86 913.3
20260507200309 69 297 2.6 2.6 0.00 0.00 0.00 86 913.3
20260507195808 69 294 1.7 2.6 0.00 0.00 0.00 86 913.3
20260507195308 69 305 2.6 2.6 0.00 0.00 0.00 86 913.3
20260507194808 69 287 0.9 2.6 0.00 0.00 0.00 86 913.2
20260507194308 69 286 1.7 2.6 0.00 0.00 0.00 86 913.2
20260507193808 69 287 1.7 2.6 0.00 0.00 0.00 87 913.2
20260507193308 68 299 2.6 2.6 0.00 0.00 0.00 88 913.2
20260507192808 68 300 2.6 3.5 0.00 0.00 0.00 88 913.3
20260507192308 68 312 2.6 3.5 0.00 0.00 0.00 88 913.3
20260507191808 68 311 2.6 2.6 0.00 0.00 0.00 88 913.3
20260507191308 68 311 2.6 2.6 0.00 0.00 0.00 88 913.3
20260507190308 68 300 1.7 3.5 0.00 0.00 0.00 88 913.5
20260507185808 68 331 1.7 4.3 0.00 0.00 0.00 89 913.6
20260507185307 68 313 2.6 4.3 0.00 0.00 0.00 89 913.6
20260507184808 68 314 2.6 4.3 0.00 0.00 0.00 89 913.6
20260507184307 68 335 2.6 4.3 0.00 0.00 0.00 88 913.6
20260507183807 68 320 2.6 3.5 0.00 0.00 0.00 89 913.6
20260507183307 68 317 2.6 3.5 0.00 0.00 0.00 88 913.7
20260507182807 68 343 2.6 3.5 0.00 0.00 0.00 89 913.7
20260507182307 68 304 2.6 4.3 0.00 0.00 0.00 89 913.8
20260507181807 68 298 2.6 4.3 0.00 0.00 0.00 89 913.9
20260507181307 67 300 3.5 5.2 0.00 0.00 0.00 88 913.9
20260507180807 67 287 4.3 5.2 0.00 0.00 0.00 88 914.0
20260507180307 68 289 3.5 4.3 0.00 0.00 0.00 88 914.1
20260507175807 68 284 1.7 4.3 0.00 0.00 0.00 88 914.0
20260507175307 68 293 3.5 4.3 0.00 0.00 0.00 88 914.0
20260507174807 68 296 3.5 3.5 0.00 0.00 0.00 88 914.0
20260507174309 68 283 3.5 3.5 0.00 0.00 0.00 88 914.1
20260507173807 67 266 2.6 3.5 0.00 0.00 0.00 87 914.1
20260507173307 67 268 1.7 3.5 0.00 0.00 0.00 87 914.2
20260507172807 67 262 1.7 3.5 0.00 0.00 0.00 87 914.2
20260507172408 67 243 0.9 2.6 0.00 0.00 0.00 87 914.2
20260507172308 67 267 0.9 2.6 0.00 0.00 0.00 87 914.2
20260507171808 67 248 1.7 2.6 0.00 0.00 0.00 87 914.2
20260507171308 67 219 0.9 2.6 0.00 0.00 0.00 87 914.2
20260507170807 67 195 1.7 2.6 0.00 0.00 0.00 87 914.2
20260507170608 67 200 1.7 2.6 0.00 0.00 0.00 86 914.2
20260507170307 67 212 0.9 2.6 0.00 0.00 0.00 86 914.3
20260507170008 67 182 1.7 2.6 0.00 0.00 0.00 87 914.3
20260507165807 67 202 1.7 2.6 0.00 0.00 0.00 87 914.3
20260507165408 67 191 0.9 1.7 0.00 0.00 0.00 87 914.3
20260507165307 67 202 0.9 1.7 0.00 0.00 0.00 87 914.3
20260507164808 67 167 0.0 2.6 0.00 0.00 0.00 87 914.3
20260507164308 67 180 0.9 2.6 0.00 0.00 0.00 87 914.3
20260507164208 67 143 1.7 2.6 0.00 0.00 0.00 87 914.3
20260507163807 67 166 0.9 1.7 0.00 0.00 0.00 86 914.4
20260507163608 67 212 0.9 1.7 0.00 0.00 0.00 86 914.4
20260507163306 67 212 0.9 1.7 0.00 0.00 0.00 86 914.4
20260507163008 67 193 0.9 1.7 0.00 0.00 0.00 86 914.4
20260507162408 67 250 0.0 1.7 0.00 0.00 0.00 87 914.5
20260507162307 67 228 0.0 1.7 0.00 0.00 0.00 87 914.4
20260507161808 67 136 0.9 1.7 0.00 0.00 0.00 87 914.4
20260507161806 67 141 0.9 1.7 0.00 0.00 0.00 87 914.4
20260507161308 67 108 0.9 1.7 0.00 0.00 0.00 87 914.5
20260507161208 67 116 0.9 1.7 0.00 0.00 0.00 87 914.5
20260507160806 67 168 0.0 0.9 0.00 0.00 0.00 87 914.6
20260507160608 66 188 0.0 0.0 0.00 0.00 0.00 88 914.6
20260507160306 66 165 0.0 0.0 0.00 0.00 0.00 88 914.6
20260507160008 66 141 0.9 1.7 0.00 0.00 0.00 88 914.6
20260507155806 66 167 0.9 1.7 0.00 0.00 0.00 88 914.6
20260507155407 66 174 1.7 1.7 0.00 0.00 0.00 88 914.6
20260507155307 67 177 0.9 1.7 0.00 0.00 0.00 88 914.6
20260507154808 67 175 0.9 1.7 0.00 0.00 0.00 88 914.5
20260507154806 67 173 0.9 1.7 0.00 0.00 0.00 88 914.5
20260507154308 67 198 0.9 1.7 0.00 0.00 0.00 88 914.6
20260507154208 66 199 0.9 1.7 0.00 0.00 0.00 88 914.6
20260507153807 66 207 0.9 1.7 0.00 0.00 0.00 88 914.5
20260507153607 66 202 1.7 1.7 0.00 0.00 0.00 88 914.5
20260507153306 66 205 0.9 1.7 0.00 0.00 0.00 89 914.6
20260507153007 66 204 0.0 0.9 0.00 0.00 0.00 89 914.7
20260507152806 66 236 0.9 1.7 0.00 0.00 0.00 89 914.7
20260507152407 66 215 0.0 1.7 0.00 0.00 0.00 89 914.7
20260507152307 66 189 1.7 2.6 0.00 0.00 0.00 89 914.7
20260507151808 66 219 1.7 2.6 0.00 0.00 0.00 89 914.7
20260507151806 66 219 1.7 2.6 0.00 0.00 0.00 89 914.8
20260507151306 67 229 0.9 2.6 0.00 0.00 0.00 88 914.7
20260507151207 67 246 1.7 2.6 0.00 0.00 0.00 88 914.7
20260507150806 67 226 1.7 1.7 0.00 0.00 0.00 87 914.7
20260507150607 67 215 0.9 1.7 0.00 0.00 0.00 87 914.8
20260507150306 67 266 0.9 1.7 0.00 0.00 0.00 88 914.8
20260507150007 67 257 0.9 1.7 0.00 0.00 0.00 88 914.8
20260507145806 67 272 0.9 1.7 0.00 0.00 0.00 88 914.8
20260507145407 66 264 0.9 2.6 0.00 0.00 0.00 88 914.9
20260507145307 66 266 0.9 2.6 0.00 0.00 0.00 88 914.9
20260507144807 66 197 1.7 2.6 0.00 0.00 0.00 88 914.9
20260507144306 66 228 1.7 3.5 0.00 0.00 0.00 88 914.9
20260507144207 66 193 1.7 3.5 0.00 0.00 0.00 88 914.9
20260507143806 67 187 1.7 3.5 0.00 0.00 0.00 88 914.8
20260507143607 67 207 2.6 3.5 0.00 0.00 0.00 88 914.9
20260507143306 67 219 1.7 2.6 0.00 0.00 0.00 88 914.9
20260507143007 67 207 2.6 2.6 0.00 0.00 0.00 88 914.9
20260507142805 67 187 1.7 2.6 0.00 0.00 0.00 88 914.9
20260507142407 67 194 1.7 2.6 0.00 0.00 0.00 88 914.8
20260507142307 67 249 1.7 2.6 0.00 0.00 0.00 88 914.8
20260507141807 67 187 0.9 2.6 0.00 0.00 0.00 88 914.8
20260507141805 67 184 0.9 2.6 0.00 0.00 0.00 88 914.7
20260507141306 66 187 1.7 3.5 0.00 0.00 0.00 88 914.7
20260507141207 66 115 1.7 4.3 0.00 0.00 0.00 88 914.7
20260507140805 66 151 1.7 4.3 0.00 0.00 0.00 88 914.6
20260507140607 66 158 2.6 4.3 0.00 0.00 0.00 88 914.5
20260507140305 66 172 0.9 4.3 0.00 0.00 0.00 88 914.6
20260507140007 66 168 1.7 3.5 0.00 0.00 0.00 88 914.6
20260507135805 66 145 0.9 1.7 0.00 0.00 0.00 88 914.6
20260507135407 67 124 0.9 1.7 0.00 0.00 0.00 88 914.5
20260507135306 67 115 0.9 1.7 0.00 0.00 0.00 89 914.5
20260507134807 67 158 1.7 4.3 0.00 0.00 0.00 89 914.5
20260507134805 67 164 1.7 4.3 0.00 0.00 0.00 89 914.5
20260507134305 66 124 0.0 2.6 0.00 0.00 0.00 88 914.4
20260507134207 67 111 1.7 2.6 0.00 0.00 0.00 88 914.3
20260507133805 67 88 0.9 2.6 0.00 0.00 0.00 88 914.3
20260507133305 66 79 1.7 3.5 0.00 0.00 0.00 88 914.2
20260507133007 66 112 1.7 5.2 0.00 0.00 0.00 88 914.2
20260507132805 66 114 2.6 5.2 0.00 0.00 0.00 89 914.2
20260507132406 66 103 3.5 4.3 0.00 0.00 0.00 89 914.1
20260507132307 66 122 3.5 4.3 0.00 0.00 0.00 89 914.1
20260507131808 66 91 2.6 3.5 0.00 0.00 0.00 89 914.1
20260507131806 66 97 2.6 3.5 0.00 0.00 0.00 89 914.2
20260507131305 67 133 0.9 2.6 0.00 0.00 0.00 90 914.1
20260507131206 67 87 0.0 1.7 0.00 0.00 0.00 90 914.1
20260507130805 67 360 0.9 2.6 0.00 0.00 0.00 90 914.1
20260507130606 67 359 0.9 2.6 0.00 0.00 0.00 90 914.1
20260507130305 67 104 0.9 2.6 0.00 0.00 0.00 90 914.0
20260507130006 68 119 1.7 3.5 0.00 0.00 0.00 89 914.0
20260507125805 68 138 1.7 2.6 0.00 0.00 0.00 89 914.0
20260507125406 68 140 0.0 0.9 0.00 0.00 0.00 89 913.9
20260507125307 68 124 0.0 0.9 0.00 0.00 0.00 89 914.0
20260507124807 68 27 0.0 0.0 0.00 0.00 0.00 88 913.9
20260507124805 68 28 0.0 0.0 0.00 0.00 0.00 88 913.9
20260507124305 69 79 0.0 0.9 0.00 0.00 0.00 88 913.9
20260507124206 69 43 0.0 0.9 0.00 0.00 0.00 88 913.8
20260507123805 68 14 0.9 1.7 0.00 0.00 0.00 88 913.7
20260507123606 68 49 1.7 2.6 0.00 0.00 0.00 89 913.7
20260507123305 68 79 0.9 1.7 0.00 0.00 0.00 89 913.6
20260507123006 68 64 0.0 0.9 0.00 0.00 0.00 90 913.6
20260507122804 68 119 0.9 2.6 0.00 0.00 0.00 90 913.6
20260507122406 68 104 0.9 2.6 0.00 0.00 0.00 90 913.6
20260507121806 67 137 0.0 2.6 0.00 0.00 0.00 91 913.6
20260507121804 67 138 0.0 2.6 0.00 0.00 0.00 91 913.5
20260507121304 68 150 1.7 2.6 0.00 0.00 0.00 91 913.5
20260507121206 68 135 1.7 2.6 0.00 0.00 0.00 91 913.5
20260507120804 68 128 0.9 1.7 0.00 0.00 0.00 91 913.5
20260507120606 68 128 0.9 1.7 0.00 0.00 0.00 90 913.5
20260507120305 68 118 0.9 1.7 0.00 0.00 0.00 90 913.5
20260507120006 68 132 0.0 0.9 0.00 0.00 0.00 90 913.4
20260507115804 68 174 0.9 1.7 0.00 0.00 0.00 90 913.4
20260507115406 68 50 0.0 0.0 0.00 0.00 0.00 90 913.4
20260507115307 68 347 0.0 0.0 0.00 0.00 0.00 90 913.4
20260507114806 67 39 0.0 0.9 0.00 0.00 0.00 91 913.3
20260507114804 67 41 0.0 0.9 0.00 0.00 0.00 91 913.3
20260507114304 67 129 0.9 1.7 0.00 0.00 0.00 92 913.2
20260507114205 67 134 0.9 1.7 0.00 0.00 0.00 92 913.2
20260507112405 68 141 0.0 2.6 0.00 0.00 0.00 91 912.9
20260507112307 68 193 1.7 2.6 0.00 0.00 0.00 91 912.9
20260507111806 68 166 0.0 0.0 0.00 0.00 0.00 91 913.0
20260507111804 68 173 0.0 0.0 0.00 0.00 0.00 91 912.9
20260507110605 68 134 0.9 1.7 0.00 0.00 0.00 91 913.0
20260507110304 68 150 0.9 1.7 0.00 0.00 0.00 91 912.9
20260507110005 68 176 0.9 1.7 0.00 0.00 0.00 91 912.9
20260507105804 68 187 1.7 3.5 0.00 0.00 0.00 91 912.9
20260507105405 68 189 0.9 2.6 0.00 0.00 0.00 92 912.9
20260507104804 68 202 1.7 3.5 0.00 0.00 0.00 92 912.9
20260507104304 68 197 1.7 1.7 0.00 0.00 0.00 92 912.9
20260507104205 68 213 0.9 1.7 0.00 0.00 0.00 92 912.9
20260507103804 68 321 0.0 0.0 0.00 0.00 0.00 93 912.9
20260507103605 67 197 0.0 0.0 0.00 0.00 0.00 93 912.9
20260507103304 67 199 1.7 3.5 0.00 0.00 0.00 94 912.8
20260507103005 67 205 0.0 2.6 0.00 0.00 0.00 94 912.8
20260507102804 67 267 0.0 0.9 0.00 0.00 0.00 95 912.7
20260507102405 68 136 0.0 1.7 0.00 0.00 0.00 95 912.7
20260507102306 68 135 0.0 1.7 0.00 0.00 0.00 95 912.7
20260507101806 68 134 0.0 0.9 0.00 0.00 0.00 95 912.7
20260507101804 68 135 0.0 0.9 0.00 0.00 0.00 95 912.7
20260507095405 68 174 0.0 2.6 0.00 0.00 0.00 96 912.6
20260507093803 69 181 2.6 3.5 0.00 0.00 0.00 95 912.5
20260507093606 68 214 0.0 0.0 0.00 0.00 0.00 95 912.6
20260507093303 69 210 1.7 3.5 0.00 0.00 0.00 95 912.6
20260507093004 69 201 2.6 4.3 0.00 0.00 0.00 95 912.5
20260507092803 69 210 0.0 3.5 0.00 0.00 0.00 95 912.5
20260507092404 69 212 2.6 4.3 0.00 0.00 0.00 95 912.5
20260507092306 69 184 2.6 4.3 0.00 0.00 0.00 95 912.5
20260507091805 69 265 2.6 5.2 0.00 0.00 0.00 94 912.5
20260507091803 69 264 2.6 5.2 0.00 0.00 0.00 94 912.5
20260507091303 69 214 3.5 5.2 0.00 0.00 0.00 95 912.5
20260507091204 69 208 2.6 5.2 0.00 0.00 0.00 95 912.6
20260507090604 69 250 1.7 4.3 0.00 0.00 0.00 95 912.5
20260507090304 69 228 3.5 5.2 0.00 0.00 0.00 95 912.5
20260507090006 69 218 3.5 6.1 0.00 0.00 0.00 94 912.5
20260507085404 69 185 2.6 4.3 0.00 0.00 0.00 95 912.5
20260507085306 69 221 2.6 4.3 0.00 0.00 0.00 95 912.5
20260507084805 69 220 2.6 3.5 0.00 0.00 0.00 95 912.6
20260507084803 69 203 2.6 3.5 0.00 0.00 0.00 95 912.6
20260507084303 69 240 3.5 6.1 0.00 0.00 0.00 95 912.6
20260507084204 69 206 3.5 6.1 0.00 0.00 0.00 95 912.6
20260507083803 69 219 3.5 6.1 0.00 0.00 0.00 94 912.6
20260507083604 69 226 1.7 6.1 0.00 0.00 0.00 94 912.5
20260507083303 69 200 2.6 5.2 0.00 0.00 0.00 94 912.5
20260507083004 69 220 0.9 4.3 0.00 0.00 0.00 94 912.6
20260507082803 69 186 0.0 4.3 0.00 0.00 0.00 94 912.6
20260507082404 69 227 0.9 4.3 0.00 0.00 0.00 94 912.5
20260507082306 69 200 0.0 3.5 0.00 0.00 0.00 95 912.6
20260507081804 69 224 3.5 6.1 0.00 0.00 0.00 94 912.5
20260507081303 69 209 3.5 6.1 0.00 0.00 0.00 94 912.6
20260507081204 69 208 4.3 6.1 0.00 0.00 0.00 94 912.6
20260507080804 69 184 0.9 5.2 0.00 0.00 0.00 94 912.6
20260507080604 69 198 3.5 8.7 0.00 0.00 0.00 94 912.7
20260507080302 69 245 4.3 8.7 0.00 0.00 0.00 94 912.7
20260507080004 69 194 2.6 7.0 0.00 0.00 0.00 94 912.8
20260507075802 69 235 3.5 7.0 0.00 0.00 0.00 93 912.8
20260507075404 69 259 1.7 6.1 0.00 0.00 0.00 94 912.8
20260507075306 68 213 0.0 5.2 0.00 0.00 0.00 95 912.9
20260507074802 69 225 0.0 6.1 0.00 0.00 0.00 93 912.9
20260507074302 70 206 5.2 7.8 0.00 0.00 0.00 93 912.9
20260507074204 70 177 4.3 7.8 0.00 0.00 0.00 93 912.9
20260507073802 70 207 2.6 5.2 0.00 0.00 0.00 93 913.0
20260507073603 70 221 0.9 5.2 0.00 0.00 0.00 94 913.1
20260507073302 69 209 0.0 3.5 0.00 0.00 0.00 93 913.0
20260507073004 70 205 5.2 7.8 0.00 0.00 0.00 93 913.0
20260507072803 70 189 6.1 9.6 0.00 0.00 0.00 93 913.0
20260507072403 69 219 0.0 5.2 0.00 0.00 0.00 94 913.0
20260507072306 69 201 6.1 10.4 0.00 0.00 0.00 93 913.0
20260507071804 70 219 6.1 10.4 0.00 0.00 0.00 94 913.0
20260507071302 69 177 1.7 9.6 0.00 0.00 0.00 93 913.0
20260507071203 69 207 0.0 0.0 0.00 0.00 0.00 93 913.2
20260507070805 70 207 5.2 10.4 0.00 0.00 0.00 93 913.2
20260507070603 70 217 4.3 7.8 0.00 0.00 0.00 94 913.2
20260507070303 69 238 0.0 4.3 0.00 0.00 0.00 94 913.3
20260507070007 69 226 4.3 10.4 0.00 0.00 0.00 93 913.3
20260507065808 69 190 6.1 10.4 0.00 0.00 0.00 93 913.2
20260507065403 69 206 6.1 10.4 0.00 0.00 0.00 93 913.4
20260507065305 70 219 5.2 10.4 0.00 0.00 0.00 93 913.4
20260507064805 70 200 0.0 5.2 0.00 0.00 0.00 92 913.4
20260507064302 71 204 6.1 8.7 0.00 0.00 0.00 91 913.4
20260507064203 71 214 5.2 7.8 0.00 0.00 0.00 91 913.4
20260507063802 71 207 5.2 9.6 0.00 0.00 0.00 91 913.5
20260507063603 71 247 5.2 7.8 0.00 0.00 0.00 91 913.5
20260507063003 70 166 4.3 7.8 0.00 0.00 0.00 92 913.6
20260507062802 70 238 3.5 8.7 0.00 0.00 0.00 92 913.6
20260507062403 71 213 5.2 8.7 0.00 0.00 0.00 91 913.7
20260507062305 71 221 5.2 8.7 0.00 0.00 0.00 91 913.7
20260507061803 70 245 2.6 7.8 0.00 0.00 0.00 92 913.8
20260507061302 71 209 0.9 7.8 0.00 0.00 0.00 90 913.7
20260507060801 71 192 5.2 8.7 0.00 0.00 0.00 90 913.8
20260507060603 71 210 5.2 8.7 0.00 0.00 0.00 90 913.8
20260507060302 71 205 4.3 7.0 0.00 0.00 0.00 90 913.8
20260507060003 71 198 0.0 4.3 0.00 0.00 0.00 88 913.9
20260507055802 72 225 0.9 5.2 0.00 0.00 0.00 88 913.9
20260507055403 71 162 3.5 7.8 0.00 0.00 0.00 90 913.9
20260507055305 71 210 5.2 7.8 0.00 0.00 0.00 90 913.9
20260507054803 71 175 3.5 5.2 0.00 0.00 0.00 92 913.9
20260507054301 70 194 3.5 6.1 0.00 0.00 0.00 92 914.1
20260507054203 70 204 1.7 5.2 0.00 0.00 0.00 92 914.1
20260507053801 71 220 4.3 7.8 0.00 0.00 0.00 91 914.1
20260507053603 71 242 4.3 7.0 0.00 0.00 0.00 91 914.1
20260507053301 71 167 2.6 4.3 0.00 0.00 0.00 91 914.1
20260507053003 71 191 0.9 4.3 0.00 0.00 0.00 90 914.2
20260507052803 72 165 5.2 8.7 0.00 0.00 0.00 89 914.2
20260507052403 73 186 1.7 8.7 0.00 0.00 0.00 89 914.2
20260507052301 73 251 3.5 8.7 0.00 0.00 0.00 88 914.2
20260507051801 72 207 3.5 8.7 0.00 0.00 0.00 90 914.2
20260507051301 72 213 3.5 10.4 0.00 0.00 0.00 89 914.3
20260507051203 72 206 0.0 7.8 0.00 0.00 0.00 89 914.3